RYR84KK LEAM-EBCI

Flight info

Callsign RYR84KK
Flight time 2h 13m
Altitude 34000
Route AGIDO M192 ARPEX DCT BAZAS M192 BLN N865 VTB N867 RBO DCT OSTIX N867 DGO L176 LUSEM DCT LULUT DCT ADABI DCT BOKNO UN858 VANAD UN874 BAMES UT191 PODEM UN873 BAZOS DCT BELDI DCT VEKIN Z173 ARVOL
Aircraft B738/M-SDE3FGILRWY/SB1

Departure

Time 2026-04-29 22:48
Airport Almería Airport (LEAM)

Arrival

Time 2026-04-30 01:01
Airport Brussels South Charleroi Airport (EBCI)
Time Latitude Longitude Altitude Speed Heading
2026-04-29 22:16 36.84631 -2.37329 69 ft 0 kts 117°
2026-04-29 22:39 36.84635 -2.37340 69 ft 0 kts 117°
2026-04-29 22:42 36.84634 -2.37338 69 ft 2 kts 117°
2026-04-29 22:43 36.84620 -2.37302 60 ft 7 kts 116°
2026-04-29 22:43 36.84595 -2.37222 63 ft 12 kts 93°
2026-04-29 22:43 36.84618 -2.37119 62 ft 12 kts 73°
2026-04-29 22:43 36.84643 -2.37017 60 ft 12 kts 73°
2026-04-29 22:44 36.84636 -2.36920 62 ft 12 kts 130°
2026-04-29 22:44 36.84616 -2.36817 59 ft 15 kts 73°
2026-04-29 22:44 36.84652 -2.36674 62 ft 19 kts 73°
2026-04-29 22:44 36.84689 -2.36520 62 ft 18 kts 73°
2026-04-29 22:45 36.84726 -2.36370 59 ft 18 kts 73°
2026-04-29 22:45 36.84762 -2.36226 62 ft 17 kts 73°
2026-04-29 22:45 36.84799 -2.36070 58 ft 20 kts 73°
2026-04-29 22:45 36.84839 -2.35908 62 ft 19 kts 73°
2026-04-29 22:46 36.84878 -2.35750 62 ft 19 kts 73°
2026-04-29 22:46 36.84915 -2.35597 57 ft 18 kts 73°
2026-04-29 22:46 36.84950 -2.35455 63 ft 16 kts 74°
2026-04-29 22:46 36.84920 -2.35347 61 ft 14 kts 143°
2026-04-29 22:47 36.84830 -2.35303 62 ft 11 kts 176°
2026-04-29 22:47 36.84796 -2.35373 55 ft 16 kts 255°
2026-04-29 22:47 36.84700 -2.35771 61 ft 82 kts 252°
2026-04-29 22:47 36.84470 -2.36705 55 ft 141 kts 253°
2026-04-29 22:48 36.84133 -2.38058 164 ft 178 kts 252°
2026-04-29 22:48 36.83770 -2.39508 895 ft 176 kts 253°
2026-04-29 22:48 36.83395 -2.41023 1520 ft 188 kts 253°
2026-04-29 22:48 36.83003 -2.42674 1930 ft 212 kts 254°
2026-04-29 22:49 36.82566 -2.44540 2185 ft 236 kts 254°
2026-04-29 22:49 36.82085 -2.46603 2545 ft 257 kts 254°
2026-04-29 22:49 36.81573 -2.48773 3304 ft 264 kts 254°
2026-04-29 22:49 36.81045 -2.50987 4145 ft 268 kts 254°
2026-04-29 22:50 36.80508 -2.53225 4983 ft 272 kts 254°
2026-04-29 22:50 36.79960 -2.55496 5832 ft 274 kts 253°
2026-04-29 22:50 36.79474 -2.57802 6647 ft 277 kts 265°
2026-04-29 22:50 36.79848 -2.60135 7443 ft 279 kts 300°
2026-04-29 22:51 36.81215 -2.61835 8278 ft 284 kts 332°
2026-04-29 22:51 36.83143 -2.62357 9091 ft 291 kts
2026-04-29 22:51 36.87147 -2.61045 10458 ft 311 kts 11°
2026-04-29 22:52 36.89391 -2.60849 10657 ft 336 kts 356°
2026-04-29 22:52 36.91769 -2.61016 11178 ft 348 kts 355°
2026-04-29 22:52 36.94197 -2.61206 11949 ft 351 kts 355°
2026-04-29 22:52 36.96659 -2.61385 12661 ft 358 kts 355°
2026-04-29 22:53 36.99157 -2.61549 13450 ft 361 kts 355°
2026-04-29 22:53 37.01688 -2.61702 14188 ft 366 kts 355°
2026-04-29 22:53 37.04242 -2.61848 14903 ft 369 kts 356°
2026-04-29 22:53 37.06816 -2.61991 15655 ft 372 kts 356°
2026-04-29 22:54 37.09364 -2.62131 16370 ft 375 kts 356°
2026-04-29 22:54 37.12029 -2.62278 17094 ft 378 kts 356°
2026-04-29 22:54 37.14672 -2.62424 17791 ft 382 kts 356°
2026-04-29 22:54 37.17318 -2.62853 18351 ft 387 kts 344°
2026-04-29 22:55 37.19881 -2.63939 18898 ft 390 kts 337°
2026-04-29 22:55 37.22411 -2.65186 19529 ft 392 kts 336°
2026-04-29 22:55 37.24916 -2.66449 20130 ft 395 kts 336°
2026-04-29 22:55 37.27431 -2.67845 20708 ft 397 kts 331°
2026-04-29 22:56 37.29847 -2.69545 21292 ft 399 kts 326°
2026-04-29 22:56 37.32204 -2.71418 21861 ft 402 kts 325°
2026-04-29 22:56 37.34561 -2.73344 22413 ft 406 kts 325°
2026-04-29 22:56 37.36930 -2.75293 22962 ft 409 kts 324°
2026-04-29 22:57 37.39319 -2.77267 23495 ft 413 kts 324°
2026-04-29 22:57 37.41732 -2.79264 23948 ft 416 kts 324°
2026-04-29 22:57 37.44155 -2.81273 24413 ft 419 kts 324°
2026-04-29 22:57 37.46602 -2.83304 24866 ft 422 kts 324°
2026-04-29 22:58 37.49062 -2.85349 25317 ft 425 kts 324°
2026-04-29 22:58 37.51540 -2.87412 25755 ft 428 kts 324°
2026-04-29 22:58 37.54033 -2.89490 26174 ft 432 kts 324°
2026-04-29 22:58 37.55731 -2.90908 26460 ft 434 kts 324°
2026-04-29 22:59 37.59077 -2.93708 27015 ft 438 kts 324°
2026-04-29 22:59 37.61676 -2.95733 27419 ft 442 kts 330°
2026-04-29 22:59 37.63522 -2.96947 27689 ft 444 kts 332°
2026-04-29 22:59 37.66316 -2.98661 28096 ft 448 kts 333°
2026-04-29 23:00 37.69141 -3.00351 28469 ft 451 kts 333°
2026-04-29 23:00 37.71984 -3.02040 28856 ft 454 kts 333°
2026-04-29 23:00 37.74852 -3.03741 29211 ft 457 kts 333°
2026-04-29 23:00 37.77702 -3.05428 29587 ft 459 kts 333°
2026-04-29 23:01 37.80604 -3.07148 29918 ft 462 kts 333°
2026-04-29 23:01 37.83551 -3.08797 30246 ft 466 kts 339°
2026-04-29 23:01 37.86641 -3.10084 30570 ft 467 kts 342°
2026-04-29 23:01 37.89761 -3.11252 30912 ft 468 kts 343°
2026-04-29 23:02 37.92888 -3.12387 31286 ft 468 kts 343°
2026-04-29 23:02 37.96011 -3.13525 31707 ft 466 kts 342°
2026-04-29 23:02 37.99112 -3.14676 32132 ft 464 kts 342°
2026-04-29 23:02 38.02204 -3.15845 32506 ft 463 kts 343°
2026-04-29 23:03 38.05284 -3.17024 32848 ft 463 kts 342°
2026-04-29 23:03 38.08370 -3.18217 33189 ft 463 kts 342°
2026-04-29 23:03 38.11438 -3.19408 33560 ft 461 kts 341°
2026-04-29 23:03 38.14507 -3.20602 33946 ft 460 kts 341°
2026-04-29 23:04 38.17562 -3.21791 34267 ft 459 kts 341°
2026-04-29 23:04 38.20614 -3.22980 34526 ft 459 kts 341°
2026-04-29 23:04 38.23667 -3.24169 34772 ft 459 kts 341°
2026-04-29 23:04 38.26726 -3.25361 35034 ft 459 kts 341°
2026-04-29 23:05 38.29771 -3.26548 35325 ft 458 kts 340°
2026-04-29 23:05 38.32816 -3.27735 35596 ft 457 kts 340°
2026-04-29 23:05 38.35851 -3.28920 35831 ft 457 kts 340°
2026-04-29 23:05 38.38895 -3.30110 36073 ft 457 kts 340°
2026-04-29 23:06 38.41927 -3.31296 36352 ft 455 kts 340°
2026-04-29 23:06 38.44952 -3.32480 36609 ft 455 kts 340°
2026-04-29 23:06 38.47977 -3.33665 36843 ft 454 kts 339°
2026-04-29 23:06 38.50991 -3.34847 37073 ft 454 kts 339°
2026-04-29 23:07 38.54006 -3.36030 37350 ft 452 kts 339°
2026-04-29 23:07 38.57009 -3.37210 37579 ft 451 kts 339°
2026-04-29 23:07 38.60015 -3.38392 37772 ft 451 kts 339°
2026-04-29 23:07 38.63013 -3.39572 37972 ft 451 kts 339°
2026-04-29 23:08 38.69054 -3.41955 38018 ft 458 kts 339°
2026-04-29 23:08 38.75171 -3.44371 37996 ft 460 kts 339°
2026-04-29 23:09 38.81286 -3.46787 38004 ft 460 kts 339°
2026-04-29 23:09 38.87398 -3.49209 37999 ft 460 kts 339°
2026-04-29 23:10 38.93504 -3.51632 37997 ft 459 kts 339°
2026-04-29 23:10 38.99669 -3.53755 37986 ft 462 kts 348°
2026-04-29 23:11 39.06124 -3.53808 38010 ft 467 kts
2026-04-29 23:11 39.12596 -3.53061 37991 ft 467 kts
2026-04-29 23:12 39.19059 -3.52334 37993 ft 466 kts
2026-04-29 23:12 39.25473 -3.51675 37992 ft 465 kts
2026-04-29 23:13 39.31922 -3.51034 37994 ft 465 kts
2026-04-29 23:13 39.38370 -3.50391 37992 ft 465 kts
2026-04-29 23:14 39.44832 -3.49743 37996 ft 466 kts
2026-04-29 23:14 39.51296 -3.49093 37988 ft 467 kts
2026-04-29 23:15 39.57772 -3.48440 37991 ft 467 kts
2026-04-29 23:15 39.64263 -3.47790 37985 ft 469 kts
2026-04-29 23:16 39.70774 -3.47137 37989 ft 469 kts
2026-04-29 23:16 39.77293 -3.46482 37989 ft 470 kts
2026-04-29 23:17 39.83811 -3.45431 37989 ft 473 kts
2026-04-29 23:17 39.90323 -3.44050 37986 ft 474 kts
2026-04-29 23:18 39.96844 -3.42670 37987 ft 474 kts
2026-04-29 23:18 40.03367 -3.41338 37985 ft 474 kts
2026-04-29 23:19 40.09887 -3.40028 37991 ft 474 kts
2026-04-29 23:19 40.16411 -3.38717 37982 ft 474 kts
2026-04-29 23:20 40.22874 -3.37414 37994 ft 474 kts
2026-04-29 23:20 40.29384 -3.36098 37986 ft 474 kts
2026-04-29 23:21 40.35905 -3.34777 37990 ft 474 kts
2026-04-29 23:21 40.42418 -3.33454 38002 ft 474 kts
2026-04-29 23:22 40.48931 -3.32130 37998 ft 474 kts
2026-04-29 23:22 40.55448 -3.30801 37990 ft 474 kts
2026-04-29 23:23 40.61968 -3.29470 37994 ft 474 kts
2026-04-29 23:23 40.68491 -3.28135 37996 ft 475 kts
2026-04-29 23:24 40.75020 -3.26796 37986 ft 475 kts
2026-04-29 23:24 40.81553 -3.25454 37990 ft 475 kts
2026-04-29 23:25 40.88091 -3.24090 37935 ft 477 kts
2026-04-29 23:25 40.94687 -3.22617 37990 ft 484 kts
2026-04-29 23:26 41.01323 -3.21112 37998 ft 489 kts
2026-04-29 23:26 41.08050 -3.19593 38012 ft 491 kts
2026-04-29 23:27 41.14802 -3.18072 38007 ft 493 kts
2026-04-29 23:27 41.21558 -3.16549 37993 ft 493 kts
2026-04-29 23:28 41.28314 -3.15023 37994 ft 492 kts
2026-04-29 23:28 41.35051 -3.13497 37998 ft 490 kts
2026-04-29 23:29 41.41763 -3.11975 37995 ft 489 kts
2026-04-29 23:29 41.48449 -3.10455 38001 ft 487 kts
2026-04-29 23:30 41.55118 -3.08940 38000 ft 485 kts
2026-04-29 23:30 41.61763 -3.07434 38001 ft 484 kts
2026-04-29 23:31 41.68342 -3.05938 38001 ft 482 kts
2026-04-29 23:31 41.74955 -3.04430 38001 ft 482 kts
2026-04-29 23:32 41.81549 -3.02915 38009 ft 482 kts
2026-04-29 23:32 41.88177 -3.01385 38013 ft 483 kts
2026-04-29 23:33 41.94806 -2.99853 38011 ft 484 kts
2026-04-29 23:33 42.01445 -2.98316 38021 ft 485 kts
2026-04-29 23:34 42.08110 -2.96769 38017 ft 486 kts
2026-04-29 23:34 42.14787 -2.95216 37998 ft 487 kts
2026-04-29 23:35 42.21468 -2.93643 37988 ft 487 kts
2026-04-29 23:35 42.28141 -2.92040 38012 ft 486 kts
2026-04-29 23:36 42.34805 -2.90485 38012 ft 486 kts
2026-04-29 23:36 42.41453 -2.88894 37983 ft 487 kts 13°
2026-04-29 23:37 42.44649 -2.87356 38020 ft 488 kts 24°
2026-04-29 23:37 42.47631 -2.85167 38000 ft 489 kts 32°
2026-04-29 23:37 42.52859 -2.79299 38010 ft 488 kts 42°
2026-04-29 23:38 42.57858 -2.73094 38005 ft 487 kts 42°
2026-04-29 23:38 42.62895 -2.66909 37983 ft 487 kts 41°
2026-04-29 23:39 42.67945 -2.60778 37989 ft 487 kts 41°
2026-04-29 23:39 42.72993 -2.54659 38001 ft 486 kts 41°
2026-04-29 23:40 42.78036 -2.48528 37988 ft 486 kts 41°
2026-04-29 23:40 42.83068 -2.42392 37988 ft 486 kts 41°
2026-04-29 23:41 42.88096 -2.36245 37997 ft 485 kts 41°
2026-04-29 23:41 42.93124 -2.30084 37992 ft 486 kts 41°
2026-04-29 23:42 42.98148 -2.23916 37973 ft 486 kts 42°
2026-04-29 23:42 43.03160 -2.17740 37981 ft 485 kts 42°
2026-04-29 23:43 43.08170 -2.11548 37975 ft 485 kts 41°
2026-04-29 23:43 43.13173 -2.05357 37967 ft 485 kts 41°
2026-04-29 23:44 43.18173 -1.99161 37955 ft 484 kts 41°
2026-04-29 23:44 43.22355 -1.93965 37958 ft 484 kts 41°
2026-04-29 23:45 43.27333 -1.87767 37965 ft 482 kts 41°
2026-04-29 23:45 43.32447 -1.81860 37956 ft 480 kts 31°
2026-04-29 23:46 43.38225 -1.77394 37962 ft 478 kts 28°
2026-04-29 23:46 43.43913 -1.72548 37971 ft 477 kts 33°
2026-04-29 23:47 43.49407 -1.67430 37961 ft 477 kts 33°
2026-04-29 23:47 43.54911 -1.62343 37963 ft 476 kts 31°
2026-04-29 23:48 43.60822 -1.58262 37958 ft 474 kts 22°
2026-04-29 23:48 43.66878 -1.54645 37951 ft 474 kts 22°
2026-04-29 23:49 43.72932 -1.51001 37933 ft 475 kts 23°
2026-04-29 23:49 43.78964 -1.47282 37921 ft 475 kts 23°
2026-04-29 23:50 43.85003 -1.43512 37925 ft 476 kts 23°
2026-04-29 23:51 43.94058 -1.37835 37928 ft 476 kts 24°
2026-04-29 23:51 44.00091 -1.34045 37929 ft 476 kts 24°
2026-04-29 23:52 44.06127 -1.30246 37927 ft 476 kts 24°
2026-04-29 23:52 44.12154 -1.26445 37928 ft 476 kts 24°
2026-04-29 23:53 44.18177 -1.22638 37928 ft 475 kts 24°
2026-04-29 23:53 44.24181 -1.18835 37932 ft 474 kts 24°
2026-04-29 23:54 44.30180 -1.15025 37935 ft 473 kts 24°
2026-04-29 23:54 44.36204 -1.11191 37939 ft 472 kts 24°
2026-04-29 23:55 44.42166 -1.07388 37938 ft 471 kts 24°
2026-04-29 23:55 44.48117 -1.03584 37938 ft 470 kts 24°
2026-04-29 23:56 44.53903 -0.99877 37940 ft 469 kts 24°
2026-04-29 23:56 44.59942 -0.95999 37939 ft 468 kts 24°
2026-04-29 23:57 44.65854 -0.92194 37938 ft 467 kts 24°
2026-04-29 23:57 44.71716 -0.88413 37957 ft 466 kts 25°
2026-04-29 23:58 44.77653 -0.84574 37961 ft 466 kts 25°
2026-04-29 23:58 44.83541 -0.80759 37971 ft 466 kts 25°
2026-04-29 23:59 44.89478 -0.76904 37969 ft 466 kts 25°
2026-04-29 23:59 44.95369 -0.73069 37966 ft 466 kts 25°
2026-04-30 00:00 45.01259 -0.69226 37957 ft 467 kts 25°
2026-04-30 00:00 45.07152 -0.65373 37954 ft 467 kts 25°
2026-04-30 00:01 45.13045 -0.61511 37951 ft 467 kts 25°
2026-04-30 00:01 45.18931 -0.57644 37948 ft 466 kts 25°
2026-04-30 00:02 45.24811 -0.53772 37951 ft 466 kts 25°
2026-04-30 00:02 45.30732 -0.49865 37950 ft 466 kts 25°
2026-04-30 00:03 45.36597 -0.45986 37953 ft 465 kts 25°
2026-04-30 00:03 45.42468 -0.42094 37958 ft 465 kts 25°
2026-04-30 00:04 45.48327 -0.38201 37971 ft 465 kts 25°
2026-04-30 00:04 45.54181 -0.34302 37967 ft 464 kts 25°
2026-04-30 00:05 45.60039 -0.30391 37967 ft 464 kts 25°
2026-04-30 00:05 45.65880 -0.26483 37965 ft 464 kts 25°
2026-04-30 00:06 45.71736 -0.22555 37968 ft 464 kts 25°
2026-04-30 00:06 45.77574 -0.18631 37968 ft 464 kts 25°
2026-04-30 00:07 45.83412 -0.14697 37970 ft 463 kts 25°
2026-04-30 00:07 45.89246 -0.10758 37967 ft 463 kts 25°
2026-04-30 00:08 45.95075 -0.06812 37967 ft 463 kts 25°
2026-04-30 00:08 46.00938 -0.02834 37973 ft 462 kts 25°
2026-04-30 00:09 46.06749 0.01119 37975 ft 462 kts 25°
2026-04-30 00:09 46.12522 0.05054 37974 ft 462 kts 25°
2026-04-30 00:10 46.18323 0.09018 37971 ft 461 kts 25°
2026-04-30 00:10 46.24118 0.12987 37973 ft 461 kts 25°
2026-04-30 00:11 46.29904 0.16959 37977 ft 461 kts 25°
2026-04-30 00:11 46.35693 0.20943 37979 ft 460 kts 25°
2026-04-30 00:12 46.41475 0.24931 37988 ft 461 kts 25°
2026-04-30 00:12 46.47260 0.28931 37994 ft 461 kts 25°
2026-04-30 00:13 46.53091 0.32972 37994 ft 461 kts 25°
2026-04-30 00:13 46.58879 0.36993 37999 ft 461 kts 25°
2026-04-30 00:14 46.64667 0.41023 37994 ft 461 kts 25°
2026-04-30 00:14 46.70457 0.45065 37986 ft 461 kts 25°
2026-04-30 00:15 46.76248 0.49117 37989 ft 461 kts 26°
2026-04-30 00:15 46.81053 0.52486 37983 ft 461 kts 26°
2026-04-30 00:16 46.86838 0.56552 37979 ft 461 kts 26°
2026-04-30 00:16 46.92655 0.60651 37989 ft 461 kts 26°
2026-04-30 00:17 46.98437 0.64742 37988 ft 461 kts 26°
2026-04-30 00:17 47.04192 0.68845 37997 ft 461 kts 26°
2026-04-30 00:18 47.09973 0.72980 37998 ft 461 kts 26°
2026-04-30 00:18 47.15730 0.77107 38008 ft 460 kts 26°
2026-04-30 00:19 47.21475 0.81234 38010 ft 459 kts 26°
2026-04-30 00:19 47.27203 0.85357 38018 ft 458 kts 26°
2026-04-30 00:20 47.32917 0.89480 38021 ft 457 kts 26°
2026-04-30 00:20 47.38622 0.93608 38018 ft 455 kts 26°
2026-04-30 00:21 47.44299 0.97725 38020 ft 454 kts 26°
2026-04-30 00:21 47.49958 1.01839 38023 ft 452 kts 26°
2026-04-30 00:22 47.55596 1.05947 38030 ft 451 kts 26°
2026-04-30 00:22 47.61214 1.10051 38029 ft 450 kts 26°
2026-04-30 00:23 47.66770 1.14119 38036 ft 448 kts 27°
2026-04-30 00:23 47.72361 1.18223 38045 ft 447 kts 27°
2026-04-30 00:24 47.77935 1.22324 38044 ft 447 kts 27°
2026-04-30 00:24 47.83537 1.26456 38053 ft 446 kts 27°
2026-04-30 00:25 47.89090 1.30561 38060 ft 446 kts 27°
2026-04-30 00:25 47.94607 1.34649 38064 ft 446 kts 27°
2026-04-30 00:26 48.00158 1.38773 38068 ft 446 kts 27°
2026-04-30 00:26 48.05710 1.42907 38076 ft 445 kts 27°
2026-04-30 00:27 48.11253 1.47045 38075 ft 445 kts 27°
2026-04-30 00:27 48.16798 1.51194 38077 ft 445 kts 27°
2026-04-30 00:28 48.22329 1.55344 38081 ft 445 kts 27°
2026-04-30 00:28 48.27858 1.59501 38088 ft 444 kts 27°
2026-04-30 00:29 48.33373 1.63658 38089 ft 443 kts 26°
2026-04-30 00:29 48.38870 1.67811 38094 ft 442 kts 26°
2026-04-30 00:30 48.44350 1.71962 38099 ft 440 kts 26°
2026-04-30 00:30 48.49811 1.76109 38104 ft 439 kts 26°
2026-04-30 00:31 48.55263 1.80257 38116 ft 438 kts 26°
2026-04-30 00:31 48.60698 1.84404 38124 ft 437 kts 26°
2026-04-30 00:32 48.66126 1.88556 38128 ft 437 kts 26°
2026-04-30 00:32 48.71558 1.92720 38131 ft 438 kts 26°
2026-04-30 00:33 48.76992 1.96896 38131 ft 438 kts 26°
2026-04-30 00:33 48.82434 2.01089 38136 ft 439 kts 26°
2026-04-30 00:34 48.87894 2.05305 38135 ft 440 kts 27°
2026-04-30 00:34 48.93355 2.09534 38157 ft 441 kts 27°
2026-04-30 00:35 48.98829 2.13782 38158 ft 442 kts 27°
2026-04-30 00:35 49.04307 2.18044 38156 ft 442 kts 27°
2026-04-30 00:36 49.09780 2.22313 38158 ft 442 kts 27°
2026-04-30 00:36 49.15243 2.26586 38158 ft 441 kts 28°
2026-04-30 00:37 49.20691 2.30856 38155 ft 440 kts 28°
2026-04-30 00:37 49.26128 2.35129 38173 ft 439 kts 28°
2026-04-30 00:38 49.31560 2.39408 38173 ft 438 kts 28°
2026-04-30 00:38 49.36967 2.43679 38178 ft 437 kts 28°
2026-04-30 00:39 49.42378 2.47962 38183 ft 437 kts 28°
2026-04-30 00:39 49.47782 2.52252 38184 ft 437 kts 28°
2026-04-30 00:39 49.50479 2.54397 38066 ft 439 kts 28°
2026-04-30 00:40 49.53189 2.56556 37567 ft 442 kts 28°
2026-04-30 00:40 49.55931 2.58741 36985 ft 440 kts 28°
2026-04-30 00:40 49.58641 2.60903 36431 ft 438 kts 28°
2026-04-30 00:40 49.61346 2.63065 35808 ft 438 kts 28°
2026-04-30 00:41 49.64054 2.65233 35167 ft 439 kts 28°
2026-04-30 00:41 49.66772 2.67410 34518 ft 441 kts 29°
2026-04-30 00:41 49.69494 2.69594 33802 ft 442 kts 29°
2026-04-30 00:41 49.72231 2.71793 33073 ft 443 kts 29°
2026-04-30 00:42 49.74947 2.73976 32613 ft 438 kts 30°
2026-04-30 00:42 49.77639 2.76143 32095 ft 434 kts 30°
2026-04-30 00:42 49.80304 2.78290 31614 ft 430 kts 30°
2026-04-30 00:42 49.82944 2.80421 31137 ft 426 kts 31°
2026-04-30 00:43 49.85563 2.82537 30676 ft 422 kts 31°
2026-04-30 00:43 49.88156 2.84636 30189 ft 419 kts 31°
2026-04-30 00:43 49.90728 2.86720 29649 ft 415 kts 31°
2026-04-30 00:43 49.93269 2.88781 29174 ft 410 kts 31°
2026-04-30 00:44 49.95761 2.90805 28691 ft 405 kts 31°
2026-04-30 00:44 49.98300 2.92870 28200 ft 400 kts 31°
2026-04-30 00:44 50.00755 2.94869 27736 ft 396 kts 31°
2026-04-30 00:44 50.03184 2.96850 27261 ft 393 kts 31°
2026-04-30 00:45 50.05597 2.98820 26798 ft 389 kts 31°
2026-04-30 00:45 50.07981 3.00768 26330 ft 386 kts 31°
2026-04-30 00:45 50.10356 3.02711 25886 ft 383 kts 31°
2026-04-30 00:45 50.12706 3.04636 25440 ft 380 kts 31°
2026-04-30 00:46 50.15036 3.06546 24999 ft 378 kts 31°
2026-04-30 00:46 50.17355 3.08450 24551 ft 375 kts 32°
2026-04-30 00:46 50.19636 3.10326 23958 ft 377 kts 31°
2026-04-30 00:46 50.21998 3.12272 23250 ft 380 kts 31°
2026-04-30 00:47 50.24334 3.14196 22739 ft 377 kts 31°
2026-04-30 00:47 50.26641 3.16096 22285 ft 373 kts 31°
2026-04-30 00:47 50.28926 3.17981 21806 ft 370 kts 31°
2026-04-30 00:47 50.31167 3.19833 21319 ft 368 kts 31°
2026-04-30 00:48 50.33449 3.21720 20803 ft 366 kts 31°
2026-04-30 00:48 50.35687 3.23574 20336 ft 364 kts 31°
2026-04-30 00:48 50.37921 3.25424 19875 ft 361 kts 31°
2026-04-30 00:48 50.40059 3.27347 19414 ft 357 kts 37°
2026-04-30 00:49 50.41969 3.29779 18953 ft 352 kts 47°
2026-04-30 00:49 50.43712 3.32514 18513 ft 349 kts 48°
2026-04-30 00:49 50.45405 3.35216 18006 ft 347 kts 48°
2026-04-30 00:49 50.47071 3.37868 17541 ft 344 kts 48°
2026-04-30 00:50 50.48752 3.40525 17077 ft 342 kts 48°
2026-04-30 00:50 50.50448 3.43191 16612 ft 339 kts 48°
2026-04-30 00:50 50.52114 3.45809 16156 ft 337 kts 49°
2026-04-30 00:50 50.53394 3.48820 15652 ft 331 kts 72°
2026-04-30 00:51 50.53832 3.52374 14737 ft 340 kts 89°
2026-04-30 00:51 50.53572 3.56138 13673 ft 354 kts 101°
2026-04-30 00:51 50.53055 3.59895 12855 ft 357 kts 102°
2026-04-30 00:51 50.52486 3.63738 12232 ft 354 kts 103°
2026-04-30 00:52 50.51935 3.67441 11667 ft 351 kts 102°
2026-04-30 00:52 50.51393 3.71137 11395 ft 340 kts 102°
2026-04-30 00:52 50.50882 3.74666 11256 ft 324 kts 102°
2026-04-30 00:52 50.50396 3.78051 11105 ft 303 kts 102°
2026-04-30 00:53 50.49950 3.81180 10965 ft 284 kts 102°
2026-04-30 00:53 50.49535 3.84100 10723 ft 272 kts 102°
2026-04-30 00:53 50.49120 3.87020 10230 ft 270 kts 102°
2026-04-30 00:53 50.48848 3.88930 9855 ft 270 kts 102°
2026-04-30 00:54 50.48440 3.91801 9347 ft 268 kts 102°
2026-04-30 00:54 50.48035 3.94634 8864 ft 265 kts 102°
2026-04-30 00:54 50.47637 3.97421 8551 ft 256 kts 102°
2026-04-30 00:54 50.47256 4.00087 8340 ft 245 kts 102°
2026-04-30 00:55 50.46888 4.02650 7990 ft 236 kts 102°
2026-04-30 00:55 50.46533 4.05127 7528 ft 231 kts 102°
2026-04-30 00:55 50.45836 4.09973 6554 ft 225 kts 102°
2026-04-30 00:56 50.45491 4.12356 6046 ft 223 kts 102°
2026-04-30 00:56 50.45150 4.14713 5552 ft 220 kts 103°
2026-04-30 00:56 50.44504 4.16829 5150 ft 215 kts 127°
2026-04-30 00:56 50.42932 4.18682 4650 ft 211 kts 149°
2026-04-30 00:57 50.42059 4.19333 4382 ft 209 kts 151°
2026-04-30 00:57 50.40761 4.20325 3933 ft 206 kts 137°
2026-04-30 00:57 50.40026 4.22171 3568 ft 201 kts 104°
2026-04-30 00:57 50.39985 4.24351 3259 ft 201 kts 83°
2026-04-30 00:58 50.40440 4.26403 3012 ft 198 kts 72°
2026-04-30 00:58 50.41006 4.28328 2776 ft 190 kts 71°
2026-04-30 00:58 50.41550 4.30142 2513 ft 179 kts 71°
2026-04-30 00:58 50.42064 4.31855 2288 ft 168 kts 72°
2026-04-30 00:59 50.42533 4.33425 2061 ft 154 kts 74°
2026-04-30 00:59 50.42958 4.34865 1895 ft 137 kts 73°
2026-04-30 00:59 50.43349 4.36196 1712 ft 131 kts 74°
2026-04-30 00:59 50.43720 4.37482 1545 ft 132 kts 73°
2026-04-30 01:00 50.44085 4.38829 1362 ft 137 kts 70°
2026-04-30 01:00 50.44498 4.40181 1202 ft 138 kts 67°
2026-04-30 01:00 50.44898 4.41569 993 ft 142 kts 65°
2026-04-30 01:00 50.45310 4.42991 808 ft 143 kts 64°
2026-04-30 01:01 50.45730 4.44402 630 ft 143 kts 64°
2026-04-30 01:01 50.46104 4.45688 593 ft 103 kts 65°
2026-04-30 01:01 50.46313 4.46406 582 ft 45 kts 65°
2026-04-30 01:01 50.46409 4.46735 579 ft 22 kts 65°
2026-04-30 01:02 50.46464 4.46870 578 ft 13 kts 31°
2026-04-30 01:02 50.46550 4.46868 578 ft 13 kts 334°
2026-04-30 01:02 50.46630 4.46808 579 ft 12 kts 335°
2026-04-30 01:02 50.46705 4.46810 577 ft 12 kts 53°
2026-04-30 01:03 50.46743 4.46930 581 ft 12 kts 64°
2026-04-30 01:03 50.46777 4.47046 578 ft 12 kts 65°
2026-04-30 01:03 50.46811 4.47159 578 ft 10 kts 64°
2026-04-30 01:03 50.46837 4.47246 579 ft 6 kts 57°
2026-04-30 01:04 50.46871 4.47248 580 ft 5 kts 338°
2026-04-30 01:04 50.46893 4.47233 580 ft 3 kts 337°
2026-04-30 01:04 50.46904 4.47227 580 ft 1 kts 338°
2026-04-30 01:04 50.46910 4.47222 578 ft 0 kts 338°